Meteo Giornale » Osservazioni meteo Italia » Decimomannu

ore: 06:55 - Osservazioni Meteo Decimomannu
Lat. 39° 21' N Lon. 8° 58' E Alt. 29 metri s.l.m.

poco_nuvoloso Europe/Rome

4 °C

Poco Nuvoloso

Temp. 24 Ore

4 °C

16 °C

Nord

5.5 Km/h

Dew point 2 °C

Umidità 86 %

Visibilità  10 Km

Il sole sorge alle ore 06:15

Il sole tramonta alle ore 18:43

Data e Ora Cielo e Fenomeni T °C DP °C Um. % Pres. hPa Vis. km Vento km/h
Oggi h: 06:55 poco_nuvoloso Poco Nuvoloso 4 2 86 1021 10 N 5.5
Oggi h: 05:55 sereno Sereno 4 2 86 1021 10 N 0
Oggi h: 04:55 sereno Sereno 5 3 86 1021 10 N 0
Oggi h: 03:55 sereno Sereno 5 2 80 1021 10 N 0
Oggi h: 03:55 sereno Sereno 5 3 86 1021 10 N 0
Oggi h: 01:55 sereno Sereno 7 5 87 1021 10 N 0
Oggi h: 00:55 sereno Sereno 7 5 87 1021 10 N 3.7
Ieri h: 23:55 sereno Sereno 8 6 87 1021 10 N 3.7
Ieri h: 22:55 sereno Sereno 8 5 81 1021 10 N 3.7
Ieri h: 21:55 sereno Sereno 9 7 87 1021 10 N 0
Ieri h: 20:55 poco_nuvoloso Poco Nuvoloso 9 7 87 1020 10 N 0
Ieri h: 19:55 poco_nuvoloso Poco Nuvoloso 10 8 87 1020 10 N 3.7
Ieri h: 18:55 nuvoloso Nuvoloso 13 9 76 1020 10 NO 13
Ieri h: 17:55 nuvoloso Nuvoloso 15 9 67 1019 10 N/NO 13
Ieri h: 16:55 nuvoloso Nuvoloso 15 9 67 1019 10 N/NO 7.4
Ieri h: 15:55 molto_nuvoloso Molto Nuvoloso 16 9 63 1019 10 N/NO 14.8
Ieri h: 14:55 molto_nuvoloso Molto Nuvoloso 15 10 72 1019 10 N/NO 11.1
Ieri h: 13:55 molto_nuvoloso Molto Nuvoloso 14 11 82 1020 8 N 9.3
Ieri h: 12:55 molto_nuvoloso Molto Nuvoloso 14 11 82 1020 8 NE 9.3
Ieri h: 11:55 nuvoloso Nuvoloso 13 10 81 1020 7 N 5.5
Ieri h: 10:55 molto_nuvoloso Molto Nuvoloso 13 11 87 1020 8 N 5.5
Ieri h: 09:55 molto_nuvoloso Molto Nuvoloso 13 10 81 1019 7 N 5.5
Ieri h: 08:55 coperto_pioggia Pioggia Debole 13 11 87 1018 7 N 5.5